Starlink 11258

operational
NORAD ID: 62598 Int'l Des: 2025-008 Owner: SPXS Country: US Constellation: starlink
LEOCIRCULAR

Starlink 11258について

説明を読み込み中...

リアルタイム位置

3D地球を読み込み中...

次回通過

高度履歴

Altitude vs Time

uPlot chart will show altitude changes over time

軌道要素

1 62598U 25008M 25259.27090248 .00225119 00000-0 17059-2 0 9994
2 62598 43.0002 97.4169 0001898 282.3443 77.7213 15.70908668 39851
Epoch: Sep 16, 2025 • Age: 38 hours

現在のステータス

高度 357.9 km
速度 7.70 km/s
衛星直下点 41.13°N, 154.97°W
打ち上げ日 Jan 13, 2025
運用期間 0.6 years
タイプ internet

技術仕様

分類 Payload
質量 960.00 kg
乾燥質量 910.00 kg
総質量 960.00 kg
長さ 0.30 m
直径 4.10 m
スパン 29.00 m
形状 Box + pan
製造者 SPXS
バスタイプ Starlink V2MD
フェーズステータス In Orbit
所有者/国 SPXS/US

大規模コンステレーション

Loading constellations...